Wind_Speed
16 15 15 15 15 15 15 14 15 14 14 15 15 14 13 13 12 12 12 12 12 12 13 13 13 13 13 13 14 13 13 13 13 13 13 12 12 12 12 12 12 12 12 12
18 17 17 16 16 16 15 15 15 14 14 15 15 15 15 13 13 13 13 13 13 13 12 13 13 14 14 14 15 15 15 15 15 14 14 14 14 13 13 13 13 13 13 13
18 18 18 18 16 16 16 15 15 15 14 14 15 15 15 14 14 13 13 13 13 13 13 13 14 14 14 14 15 15 15 15 15 15 15 15 15 15 15 15 15 15 15 15
19 19 20 17 17 17 17 16 15 15 14 15 15 14 14 14 14 14 14 14 14 14 13 13 14 14 15 15 15 15 15 16 16 16 16 16 16 16 16 16 16 16 16 17
20 21 20 18 17 17 17 18 17 16 15 16 16 15 14 13 13 13 13 13 14 14 14 14 14 15 15 16 16 15 15 16 16 17 17 17 16 17 16 16 17 17 17 17
21 21 20 18 18 18 18 18 17 17 17 16 16 16 15 14 14 14 14 13 13 14 15 15 15 15 16 16 16 16 16 17 17 18 18 18 18 18 18 17 18 18 18 19
23 22 21 20 20 20 20 19 17 17 18 17 18 17 15 15 15 15 15 14 14 15 15 16 16 16 17 17 17 17 17 18 18 19 19 19 20 20 20 19 20 20 20 20
24 24 22 22 22 21 21 20 19 19 19 19 19 17 17 16 16 16 16 15 15 16 16 17 17 17 17 18 18 18 19 19 19 20 21 20 21 21 21 20 21 21 21 21
25 25 23 22 22 22 22 22 21 21 21 21 20 19 18 18 17 17 17 17 17 17 17 17 18 19 19 19 19 20 20 20 21 22 22 22 22 22 21 21 21 22 22 22
26 26 26 25 24 24 24 24 23 23 23 22 21 21 20 19 19 19 19 19 19 19 19 18 19 20 21 21 21 21 21 22 22 23 23 23 23 23 22 22 22 23 23 24
28 27 27 27 27 26 26 25 26 25 24 23 22 22 22 21 21 20 20 20 20 20 20 20 20 21 22 22 23 23 23 23 23 23 24 24 23 23 23 23 24 25 25 26
28 27 27 27 27 27 27 26 26 26 26 25 24 24 23 23 22 21 21 21 21 22 22 21 21 22 22 23 24 24 24 24 24 24 24 24 24 24 25 25 26 26 26 27
29 27 28 27 26 26 27 26 27 27 26 26 26 25 25 23 22 22 22 22 23 23 23 23 23 23 23 24 24 24 24 24 24 24 24 24 24 25 25 26 27 27 27 28
31 30 29 28 28 28 28 27 27 28 28 27 27 26 25 24 24 24 24 24 24 24 25 25 25 25 25 25 25 25 25 25 25 25 25 26 26 26 26 27 27 27 29 30
31 32 31 29 29 29 29 29 29 29 28 28 28 27 26 26 25 25 26 25 25 26 26 26 26 25 25 25 25 25 26 26 26 27 27 27 27 27 27 28 28 29 29 30
32 33 33 32 31 31 31 31 31 30 29 29 29 29 28 28 28 27 27 27 27 27 27 27 26 26 26 26 26 26 26 27 27 28 28 28 29 29 29 30 30 31 31 32
34 34 34 34 34 33 32 33 33 32 31 31 30 30 30 30 29 29 28 28 28 28 28 28 28 28 28 28 28 28 28 28 29 29 30 30 30 30 31 32 32 33 33 34
36 36 36 36 36 35 34 34 34 33 33 32 32 31 31 31 31 30 30 29 29 29 30 30 30 30 30 30 30 30 30 30 30 31 32 32 32 33 33 34 34 35 35 36
36 37 37 36 36 36 35 35 35 35 34 34 33 32 32 32 32 31 31 31 31 30 30 30 30 31 31 31 32 32 32 32 33 33 33 34 35 35 36 36 36 37 38 38
36 37 37 37 37 36 36 35 35 35 35 34 34 33 33 32 32 32 32 32 32 31 32 32 32 32 32 33 33 34 34 34 35 35 36 36 36 37 37 37 38 38 39 39
36 36 37 37 37 36 36 36 36 36 36 35 35 35 34 34 33 33 33 33 33 33 34 34 34 34 34 34 34 35 36 36 37 38 38 38 38 38 38 39 39 40 40 40
35 36 37 37 37 37 37 37 37 37 37 37 36 36 35 35 35 35 34 34 34 35 35 35 36 36 36 36 36 37 37 38 39 39 39 39 39 39 39 39 40 40 40 40
35 35 36 36 37 37 37 37 37 37 37 37 36 36 35 35 36 36 35 35 35 36 36 36 36 36 36 37 37 37 38 38 39 39 39 39 40 40 40 40 41 41 41 41
34 35 35 36 36 36 36 37 37 37 37 37 37 36 36 35 36 36 36 36 36 36 36 36 36 36 37 37 38 38 39 39 39 39 39 40 40 40 40 40 41 41 41 42
35 35 35 36 36 36 37 37 38 38 39 39 38 38 37 37 36 36 36 37 37 37 36 36 36 37 37 38 39 39 39 40 40 39 40 40 40 40 40 41 41 41 42 42
35 36 36 37 37 37 37 38 38 39 39 40 39 39 39 38 38 37 37 37 37 37 37 37 37 37 38 38 38 39 40 40 40 40 40 40 40 40 41 41 41 41 41 42
35 35 36 36 37 37 38 38 38 39 39 40 40 39 39 39 39 38 38 38 38 38 38 38 38 38 38 38 39 39 39 39 39 40 40 40 40 41 40 40 41 41 41 41
Wind_Direction
236 240 243 241 240 240 240 242 241 240 247 252 258 255 253 252 250 249 249 248 247 246 243 240 241 244 245 245 248 251 251 252 256 257 259 262 265 270 272 276 284 288 290 293
236 240 241 243 242 243 243 243 246 245 247 248 252 254 254 255 251 248 247 247 246 245 244 242 242 243 245 248 249 250 251 252 255 257 260 261 264 267 269 274 280 283 286 290
236 240 242 243 243 244 244 244 246 247 247 247 249 254 255 255 252 249 247 247 246 245 244 243 243 244 245 248 251 252 252 252 256 259 260 261 264 266 269 272 278 281 283 286
238 241 245 247 244 244 244 245 247 248 248 249 250 253 255 254 250 247 249 249 246 245 245 245 245 245 245 248 250 252 254 255 257 258 260 262 265 268 271 273 277 279 282 285
239 243 247 247 246 246 245 246 247 247 247 247 249 252 253 253 249 248 249 250 250 248 248 248 249 248 247 248 250 252 256 257 258 258 260 263 266 269 271 274 277 279 282 285
241 245 248 247 248 246 247 247 246 247 248 247 247 249 249 250 251 250 254 256 255 253 253 251 251 251 251 253 254 256 258 261 260 260 261 262 266 269 270 272 277 280 282 285
243 244 246 246 248 247 246 247 246 248 248 247 248 251 252 251 250 252 256 258 258 256 255 254 254 253 253 254 256 258 260 262 262 262 262 262 265 268 270 272 276 281 284 286
243 244 245 246 247 246 247 246 247 247 248 247 249 250 252 253 252 253 256 257 258 258 257 256 255 255 255 256 259 260 261 262 263 265 266 264 266 268 269 272 276 279 282 286
244 245 246 246 245 245 245 247 247 247 248 248 250 252 254 255 256 256 259 258 259 260 259 259 257 257 258 259 260 263 264 265 265 266 267 267 268 270 270 272 276 279 282 285
244 245 247 246 244 246 246 246 246 247 249 251 251 252 254 257 259 260 260 260 260 258 258 259 259 259 261 261 263 265 267 268 267 266 267 268 269 270 273 276 278 280 282 285
244 248 249 248 247 248 248 249 248 248 248 248 249 251 253 256 258 259 259 261 261 259 259 260 260 262 263 263 264 266 268 269 268 268 268 269 270 271 274 276 278 280 283 285
242 243 246 246 247 247 247 248 249 249 249 249 250 252 254 256 257 258 258 260 261 260 261 263 261 262 263 265 266 268 268 268 268 268 270 271 271 271 273 276 278 281 283 285
242 243 246 249 248 248 247 247 248 248 249 250 251 252 255 257 258 257 258 260 261 261 263 263 263 263 263 264 266 268 269 268 269 270 271 272 272 273 275 276 278 280 282 285
242 243 246 248 249 248 248 248 247 247 249 250 251 253 254 256 258 259 260 261 261 261 263 264 264 264 264 265 266 268 269 268 269 270 271 272 273 274 275 276 278 280 282 285
242 244 246 247 248 247 247 248 249 249 250 251 253 253 254 255 257 259 261 262 262 262 263 264 265 265 265 265 265 266 267 268 269 270 271 272 274 275 276 277 279 281 283 286
243 246 247 247 249 249 248 248 249 250 252 252 253 253 254 255 257 259 260 261 262 263 263 264 265 266 268 268 267 266 268 269 270 270 271 273 274 275 276 278 280 282 284 285
244 245 246 247 248 249 248 248 250 251 252 252 253 254 254 256 258 259 259 261 262 264 264 265 266 267 268 269 268 268 270 272 272 272 272 273 274 276 277 279 281 282 283 285
246 247 247 247 248 248 249 249 250 252 253 253 254 254 255 256 258 259 260 262 263 265 266 266 266 267 268 268 268 269 271 272 273 274 274 275 276 277 279 280 281 282 283 285
246 246 246 246 247 248 248 249 250 252 253 254 255 255 256 256 257 259 260 261 263 264 265 266 267 267 268 269 269 270 270 271 272 273 275 276 277 279 279 280 281 281 282 284
245 246 246 247 247 248 249 250 250 250 252 253 254 255 256 258 259 260 261 261 262 263 264 265 266 268 269 270 270 270 271 272 274 274 276 277 278 279 279 280 281 282 282 283
246 246 247 249 249 249 250 251 250 250 251 252 254 256 258 259 260 261 261 261 262 263 264 265 267 269 271 271 271 272 273 273 274 276 276 277 278 279 279 280 280 281 282 283
246 247 247 248 249 250 250 251 252 252 252 253 254 256 258 260 261 262 262 262 263 264 266 267 268 270 271 271 271 273 274 274 275 276 277 277 277 278 279 279 280 281 282 283
247 247 248 248 248 250 251 251 252 253 253 253 255 257 259 260 261 262 262 263 264 265 267 267 268 269 270 271 272 273 275 276 276 277 278 278 278 278 279 279 280 282 283 284
247 248 248 248 248 249 250 250 251 252 253 254 255 257 258 260 261 262 262 263 264 265 266 268 269 269 270 271 273 274 275 276 277 278 278 279 279 279 280 280 281 282 283 284
249 248 249 249 249 249 250 251 251 252 253 255 255 256 257 260 262 263 264 264 265 266 267 268 270 270 271 272 273 274 275 276 277 277 278 278 279 280 281 281 282 283 283 284
250 250 250 250 250 250 251 252 253 254 254 256 258 258 259 260 261 262 263 264 265 266 267 268 270 272 272 273 274 276 276 277 277 277 278 278 279 280 281 282 282 283 283 285
251 251 251 251 251 251 251 252 253 255 256 257 258 259 260 260 261 261 262 263 264 266 267 269 271 273 273 274 275 276 277 277 278 278 279 279 280 280 281 283 283 283 284 285
Height
5824 5826 5827 5828 5830 5832 5834 5835 5837 5838 5839 5840 5840 5841 5842 5843 5844 5845 5846 5848 5849 5850 5852 5853 5855 5857 5858 5859 5861 5862 5864 5865 5866 5867 5868 5868 5869 5870 5870 5870 5870 5870 5870 5869
5820 5822 5823 5825 5827 5829 5830 5832 5833 5834 5836 5837 5837 5838 5839 5840 5841 5842 5844 5845 5846 5847 5849 5851 5852 5853 5855 5856 5858 5859 5860 5861 5862 5863 5864 5865 5866 5866 5867 5867 5867 5867 5866 5866
5816 5818 5819 5821 5824 5825 5827 5828 5830 5831 5833 5833 5834 5834 5836 5837 5838 5839 5840 5842 5843 5844 5846 5847 5849 5850 5851 5852 5854 5855 5856 5858 5859 5860 5861 5862 5862 5863 5863 5863 5863 5863 5863 5862
5812 5815 5815 5820 5820 5821 5823 5825 5826 5827 5828 5829 5830 5831 5832 5833 5834 5835 5837 5838 5839 5841 5842 5843 5845 5846 5847 5849 5850 5851 5852 5854 5855 5856 5857 5858 5858 5859 5859 5859 5859 5859 5859 5858
5807 5809 5811 5814 5816 5817 5819 5821 5822 5823 5825 5825 5826 5828 5829 5830 5831 5832 5833 5835 5836 5837 5838 5840 5841 5842 5844 5845 5846 5847 5849 5850 5851 5852 5852 5853 5854 5854 5855 5855 5855 5855 5854 5854
5803 5804 5806 5811 5811 5813 5816 5816 5818 5819 5820 5822 5823 5824 5826 5827 5827 5829 5830 5831 5832 5833 5834 5836 5837 5838 5840 5841 5842 5843 5844 5845 5846 5847 5848 5848 5849 5850 5850 5850 5850 5850 5849 5849
5797 5799 5801 5805 5806 5809 5812 5813 5814 5815 5816 5817 5819 5820 5822 5822 5824 5825 5826 5827 5828 5829 5830 5831 5832 5834 5835 5836 5838 5839 5839 5840 5841 5842 5843 5843 5844 5844 5845 5845 5845 5845 5844 5844
5792 5794 5798 5799 5801 5803 5805 5807 5808 5810 5811 5813 5814 5816 5817 5818 5820 5821 5822 5823 5824 5825 5825 5826 5827 5829 5830 5831 5833 5833 5834 5835 5836 5836 5837 5837 5838 5839 5839 5839 5840 5839 5839 5838
5787 5790 5792 5793 5795 5797 5799 5801 5803 5805 5806 5808 5810 5812 5813 5814 5815 5816 5817 5818 5819 5820 5821 5822 5823 5824 5825 5826 5827 5828 5829 5829 5830 5831 5831 5832 5832 5832 5832 5833 5833 5833 5833 5832
5781 5783 5785 5787 5789 5791 5793 5795 5798 5799 5801 5803 5805 5806 5808 5809 5810 5811 5812 5813 5814 5815 5816 5817 5818 5819 5820 5821 5822 5822 5823 5823 5824 5824 5825 5825 5826 5826 5827 5827 5827 5827 5826 5826
5774 5776 5778 5780 5782 5785 5787 5789 5792 5793 5796 5798 5799 5801 5802 5803 5804 5805 5806 5807 5808 5809 5810 5811 5812 5813 5814 5815 5816 5816 5817 5817 5818 5818 5819 5819 5819 5820 5820 5820 5820 5820 5819 5818
5767 5770 5771 5773 5776 5778 5780 5782 5785 5787 5789 5791 5793 5795 5796 5797 5799 5800 5801 5802 5802 5803 5804 5805 5806 5807 5808 5809 5809 5810 5810 5810 5811 5811 5812 5812 5812 5813 5813 5813 5813 5812 5812 5811
5760 5762 5764 5767 5769 5771 5773 5775 5778 5780 5782 5785 5787 5788 5790 5791 5792 5793 5794 5795 5796 5797 5798 5799 5800 5800 5801 5802 5802 5803 5803 5804 5804 5804 5805 5805 5805 5806 5806 5806 5805 5804 5803 5802
5752 5755 5757 5759 5762 5764 5767 5769 5771 5773 5775 5777 5779 5781 5783 5785 5786 5787 5788 5789 5789 5790 5791 5792 5793 5793 5794 5794 5795 5795 5796 5796 5797 5797 5797 5797 5797 5797 5798 5797 5797 5796 5795 5794
5744 5747 5750 5752 5754 5757 5759 5762 5764 5766 5768 5770 5772 5774 5776 5777 5779 5780 5781 5782 5782 5783 5784 5784 5785 5786 5786 5787 5787 5787 5788 5788 5789 5789 5789 5789 5789 5789 5789 5789 5788 5788 5787 5785
5736 5738 5741 5744 5746 5749 5752 5754 5756 5758 5760 5762 5764 5766 5768 5769 5771 5772 5773 5774 5775 5776 5776 5777 5777 5778 5778 5779 5779 5780 5780 5780 5781 5781 5781 5781 5781 5781 5780 5780 5779 5779 5778 5777
5726 5729 5732 5735 5738 5740 5743 5745 5747 5750 5752 5754 5756 5758 5759 5761 5762 5764 5765 5766 5766 5767 5768 5769 5769 5770 5770 5770 5771 5771 5771 5772 5772 5772 5772 5772 5771 5771 5771 5770 5770 5769 5768 5766
5717 5720 5723 5726 5729 5732 5734 5736 5739 5741 5743 5745 5747 5749 5751 5752 5754 5755 5756 5757 5758 5759 5759 5760 5760 5761 5761 5761 5762 5762 5762 5762 5762 5762 5762 5762 5762 5761 5761 5760 5759 5758 5757 5756
5707 5710 5713 5716 5719 5721 5724 5727 5729 5732 5734 5736 5738 5740 5741 5743 5744 5746 5747 5748 5749 5750 5751 5751 5751 5752 5752 5752 5752 5752 5752 5752 5752 5752 5752 5751 5751 5751 5750 5749 5748 5747 5746 5744
5697 5700 5703 5706 5709 5712 5715 5717 5719 5722 5724 5726 5728 5730 5732 5733 5735 5736 5737 5739 5739 5740 5741 5741 5742 5742 5742 5742 5742 5742 5742 5742 5741 5741 5741 5740 5740 5739 5738 5737 5737 5735 5734 5732
5687 5690 5693 5696 5699 5702 5705 5707 5709 5712 5714 5716 5718 5720 5722 5723 5725 5726 5727 5729 5730 5730 5730 5731 5731 5732 5731 5731 5731 5731 5731 5730 5730 5729 5729 5728 5728 5727 5726 5725 5724 5723 5721 5720
5678 5680 5683 5686 5688 5691 5694 5696 5699 5701 5704 5706 5708 5709 5711 5713 5714 5715 5717 5718 5719 5719 5720 5720 5720 5720 5720 5720 5720 5720 5719 5719 5718 5717 5716 5716 5715 5715 5714 5713 5712 5710 5709 5707
5668 5670 5673 5675 5678 5681 5683 5686 5688 5690 5693 5695 5697 5699 5700 5702 5703 5705 5706 5707 5708 5708 5709 5709 5709 5709 5709 5708 5708 5708 5707 5706 5706 5705 5704 5703 5702 5702 5701 5700 5699 5697 5696 5694
5658 5660 5663 5665 5668 5670 5672 5675 5677 5679 5682 5684 5686 5687 5689 5691 5692 5694 5695 5696 5696 5697 5697 5698 5698 5697 5697 5697 5697 5696 5695 5695 5694 5693 5692 5690 5689 5689 5688 5687 5685 5684 5683 5681
5647 5650 5652 5655 5657 5660 5662 5664 5666 5668 5670 5673 5674 5676 5678 5679 5681 5683 5684 5684 5685 5686 5686 5686 5686 5686 5686 5685 5685 5684 5683 5682 5681 5680 5679 5678 5677 5676 5675 5673 5672 5671 5669 5668
5637 5639 5642 5644 5646 5649 5651 5653 5655 5657 5659 5661 5663 5665 5666 5668 5670 5671 5672 5673 5673 5674 5674 5674 5674 5674 5673 5673 5672 5672 5671 5670 5669 5668 5666 5665 5664 5663 5662 5660 5659 5658 5656 5655
5626 5628 5631 5633 5635 5637 5640 5642 5644 5646 5648 5650 5651 5653 5654 5656 5657 5659 5660 5661 5661 5662 5662 5662 5662 5662 5661 5661 5660 5659 5658 5657 5656 5655 5653 5652 5651 5650 5649 5647 5646 5645 5643 5642